{"data":{"norad_id":67192,"epoch":"2026-09-20T11:44:20.254848Z","epoch_age_seconds":79606,"freshness":"FRESH","line1":"1 67192U 25304A   26263.48912332  .00004814  00000+0  41106-3 0  9991","line2":"2 67192  70.0016  43.3093 0003132 271.4670  88.6130 14.98318466 43035","mean_motion":14.98318466,"eccentricity":0.0003132,"inclination_deg":70.0016,"raan_deg":43.3093,"arg_perigee_deg":271.467,"mean_anomaly_deg":88.613,"bstar":0.00041106,"rev_number":4303,"period_min":96.107738953809,"perigee_km":569.91474753207,"apogee_km":574.2683707015,"semimajor_km":6950.2285591168,"source":"CELESTRAK","updated_at":"2026-09-21T09:00:36.135080Z"}}